Regional Weather Roundup
Issued by NWS

Home | Current Version | Previous Version | Graphics & Text | Print | Product List | Glossary On
Versions: 1 2 3 4 5 6 7 8 9 10 11 12 13 14 15 16 17 18 19 20 21 22 23 24 25 26 27 28 29 30 31 32 33 34 35 36 37 38 39 40 41 42 43 44 45 46 47 48 49 50
000
ASUS43 KLOT 180603
RWRIL

ILLINOIS REGIONAL WEATHER ROUNDUP
NATIONAL WEATHER SERVICE CHICAGO/ROMEOVILLE IL
1200 AM CST THU JAN 18 2018

NOTE: "FAIR" INDICATES FEW OR NO CLOUDS BELOW 12,000 FEET WITH NO
SIGNIFICANT WEATHER AND/OR OBSTRUCTIONS TO VISIBILITY.

* THESE STATIONS ARE NOT UNDER NWS QUALITY CONTROL. THEY ALSO MAY NOT
  REPORT WEATHER SUCH AS PRECIPITATION OR FOG.

ILZ001-002-007-009-015-016-024-180700-
NORTHWEST ILLINOIS

CITY           SKY/WX    TMP DP  RH WIND       PRES   REMARKS
MOLINE         FAIR      19  11  70 W15       30.27F WCI   5
6HR MIN TEMP:  18; 6HR MAX TEMP:  19;

STERLING*      FAIR      15  10  80 SW8       30.25F WCI   4
SAVANNA*       FAIR      18  10  70 SW9       30.24F WCI   6
$$

ILZ003-004-008-010-011-017-018-180700-
NORTH CENTRAL ILLINOIS

CITY           SKY/WX    TMP DP  RH WIND       PRES   REMARKS
ROCKFORD       FAIR      17   8  67 SW13      30.22F WCI   4
6HR MIN TEMP:  17; 6HR MAX TEMP:  18;

FREEPORT*      FAIR      17  10  73 SW15      30.20S WCI   2
ROCHELLE*      FAIR      15  10  81 SW16      30.22F WCI  -1
DE KALB*       FAIR      17  10  75 W22G29    30.20F WCI  -1
PERU*          FAIR      16   9  72 SW14G20   30.27F WCI   2
$$

ILZ005-006-012>014-019>023-180700-
NORTHEAST ILLINOIS

CITY           SKY/WX    TMP DP  RH WIND       PRES   REMARKS
CHICAGO-OHARE  FAIR      18   9  68 W21G29    30.19F WCI   1
6HR MIN TEMP:  17; 6HR MAX TEMP:  19;

CHICAGO-MIDWAY FAIR      19  10  68 SW21G28   30.21F WCI   3
6HR MIN TEMP:  18; 6HR MAX TEMP:  19;

AURORA         FAIR      16   9  74 SW14      30.23F WCI   2
6HR MIN TEMP:  16; 6HR MAX TEMP:  17;

LANSING*       FAIR      17  11  78 SW14      30.25F WCI   3
JOLIET*        FAIR      19  10  70 SW12      30.26F WCI   6
WAUKEGAN       FAIR      18   9  68 SW12G29   30.12F WCI   5
6HR MIN TEMP:  17; 6HR MAX TEMP:  19;

DUPAGE AIRPORT FAIR      16  10  77 SW16G26   30.21F WCI   1
6HR MIN TEMP:  15; 6HR MAX TEMP:  16;

KANKAKEE*      FAIR      17   9  71 SW18      30.30F WCI   0
WHEELING       FAIR      18  10  71 SW15G24   30.19F WCI   4
6HR MIN TEMP:  18; 6HR MAX TEMP:  20;

MORRIS*        FAIR      17   9  72 SW13      30.26F WCI   3
NORTHERLY ISL    N/A     19   9  65 SW22        N/A  WCI   3
$$

LMZ740>746-180700-
SOUTHERN LAKE MICHIGAN

STATION/POSITION SKY/WX   TEMP    WIND        PRES    VSBY  WAVE
                          AIR SEA DIR/SP/G                  HT/PER
                          (F)     (DEG/KT/KT) (MB)    (MI)  (FT/S)
HARRISON CRIB              22     240/ 24/ 28   N/A
BURNHAM HARBOR             19     260/ 11/ 19   N/A
CALUMET HARBOR             18     210/ 12/ 19 1022.7F
BURNS HARBOR               17     210/ 15/ 20 1024.4F
MICHIGAN CITY              18     210/ 20/ 22   N/A
$$

ILZ025>027-034>036-040-047-049-050-058-095>099-180700-
WEST-CENTRAL ILLINOIS

CITY           SKY/WX    TMP DP  RH WIND       PRES   REMARKS
QUINCY         CLOUDY    17   8  67 SW14      30.37F WCI   3
GALESBURG*     FAIR      16  11  81 SW13G18   30.31F WCI   2
MACOMB*        CLOUDY    18  10  73 SW18G26   30.35S WCI   2
JACKSONVILLE*  CLOUDY    17   8  70 SW12      30.38F WCI   4
PITTSFIELD*    CLOUDY    19  10  68 SW15      30.39F WCI   4
$$

ILZ028>032-037-038-041>044-048-051>054-059>061-180700-
CENTRAL ILLINOIS

CITY           SKY/WX    TMP DP  RH WIND       PRES   REMARKS
BLOOMINGTON    FAIR      15   9  76 SW23      30.30F WCI  -3
DECATUR        FAIR      17   9  70 SW17      30.37F WCI   1
PEORIA         FAIR      17   9  70 SW16      30.32F WCI   2
6HR MIN TEMP:  17; 6HR MAX TEMP:  19;

LACON*         FAIR      17  10  71 SW14G20   30.28F WCI   3
LINCOLN*       FAIR      18  10  73 SW5       30.36F WCI  11
SPRINGFIELD    FAIR      18   9  68 SW13      30.38F WCI   5
6HR MIN TEMP:  17; 6HR MAX TEMP:  20;

TAYLORVILLE    FAIR      17   8  70 SW13      30.40F WCI   3
6HR MIN TEMP:  15; 6HR MAX TEMP:  17;

$$

ILZ033-039-045-046-055>057-062-063-180700-
EAST-CENTRAL ILLINOIS

CITY           SKY/WX    TMP DP  RH WIND       PRES   REMARKS
CHAMPAIGN      FAIR      14   8  77 SW18      30.35F WCI  -3
DANVILLE*      FAIR      13   7  76 SW12      30.34S WCI  -1
RANTOUL*       FAIR      18  10  73 SW13      30.34F WCI   4
MATTOON        FAIR      13   8  81 S8        30.39F WCI   2
PARIS*         FAIR      14   9  79 SW15      30.40S WCI  -2
$$

ILZ079-100>102-180700-
SOUTHWEST ILLINOIS

CITY           SKY/WX    TMP DP  RH WIND       PRES   REMARKS
ALTON          CLOUDY    18  11  73 SW6       30.45F WCI  10
BELLEVILLE     CLEAR     15   7  70 S5        30.46F WCI   8
CAHOKIA*       CLEAR     20   8  60 SW5       30.47F WCI  13
SPARTA*        CLOUDY    16  12  86 S8        30.50F WCI   5
$$

ILZ064>066-069>071-074>076-080>082-084>086-088>090-092>094-180700-
SOUTH-CENTRAL ILLINOIS

CITY           SKY/WX    TMP DP  RH WIND       PRES   REMARKS
CARBONDALE     FAIR      13   8  81 SW7       30.52F WCI   3
6HR MIN TEMP:  12; 6HR MAX TEMP:  20;

CAIRO*         FAIR       9   6  90 S3        30.56F
EFFINGHAM*     FAIR      16  10  78 SW8       30.45F WCI   5
MARION         FAIR      13   7  77 SW6       30.52F WCI   4
MT. VERNON     FAIR      11   7  84 SW8       30.49F WCI  -1
CENTRALIA*     CLOUDY    16  11  81 CALM      30.46F
SALEM*         FAIR      17  10  75 SW7       30.46F WCI   7
METROPOLIS*    FAIR      10   7  87 SW7       30.56F WCI  -1
$$

ILZ067-068-072-073-078-083-087-091-180700-
SOUTHEAST ILLINOIS

CITY           SKY/WX    TMP DP  RH WIND       PRES   REMARKS
LAWRENCEVILLE  FAIR       8   4  83 SW10      30.47F WCI  -6
FLORA*         FAIR      15   9  77 SW8       30.47F WCI   4
FAIRFIELD*     FAIR      11   7  81 S5        30.48F WCI   3
HARRISBURG*    FAIR      11   6  81 SW6       30.53F WCI   1
ROBINSON*      FAIR      13   6  75 SW10      30.46F WCI   0
CARMI*         FAIR      11   6  79 S7        30.51F WCI   0
$$

ABBREVIATIONS USED IN REMARKS
   TC - TEMPERATURE IN CELSIUS
  WCI - WIND CHILL INDEX
   HX - HEAT INDEX
  VSB - VISIBILITY
$$




USA.gov is the U.S. government's official web portal to all federal, state and local government web resources and services.